Погода в Чхунджу

Южная Корея     36°58′17″N   127°55′32″E
темп.,
°C
ветер,
м/с
пор.,
м/с
влажн.,
%
обл.,
%
осадки,
мм/ч
давл.,
гПа
погр.,
м
28 сентября, вт
вт2800:00+17всв118578 0.0 101522
03:00+16всв228778 0.0 101544
06:00+16вюв1289100 0.1 101550
09:00+17в1284100 0.1 1015153
12:00+18всв1280100 0.1 1015222
15:00+17в2291100 0.5 101368
18:00+17всв1293100 0.1 101349
21:00+17всв1193100 0.1 101327
29 сентября, ср
ср2900:00+17в1194100 0.4 101228
03:00+17в119617 0.4 101020
06:00+17вюв119797 0.3 100921
09:00+18юв0196100 1.7 100872
12:00+19зсз1296100 7.5 1007182
15:00+19ююв1299100 32.4 1007120
18:00+19зюз1499100 0.8 1008211
21:00+18зюз119899 1.1 100917
30 сентября, чт
чт3000:00+17зюз119857 0.1 100914
03:00+17з119898 0.1 100931
06:00+16сз009758 0.0 101016
09:00+19сз018850 0.0 1011367
12:00+24сз11660 0.0 1010738
15:00+25зсз22600 0.0 1008880
18:00+20з11805 0.0 100911
21:00+17юв11890 0.0 101011
1 октября, пт
пт100:00+16в11930 0.0 101011
03:00+15вюв11953 0.0 101011
06:00+15в11963 0.0 101111
09:00+19з00810 0.0 1011269
12:00+24з22581 0.0 1010818
15:00+25з33532 0.0 10091133
18:00+20юз11800 0.0 101011
21:00+17зюз11920 0.0 101211
2 октября, сб
сб200:00+16ююв01920 0.0 101311
03:00+15юв009448 0.0 101311
06:00+14в11950 0.0 101410
09:00+20в11771 0.0 1015282
12:00+25з11560 0.0 1014840
15:00+26зсз22530 0.0 10131025
18:00+21сз00760 0.0 101411
21:00+18юв11860 0.0 101611